Vorticity
10 14 10 10 10 12 13 17 16 12 9 7 8 9 10 8 9 9 9 9 10 11
9 14 10 9 12 12 15 17 14 11 6 14 11 6 6 7 10 9 10 11 10 8
13 12 9 10 13 13 15 16 12 9 13 10 6 5 6 10 10 9 8 8 11 12
14 10 9 14 14 17 16 13 13 11 10 6 5 8 10 9 7 6 10 15 17 17
14 9 11 14 15 18 12 14 11 10 7 6 9 10 7 7 12 18 25 26 25 22
10 10 16 17 17 14 13 11 11 8 7 9 8 9 15 24 31 33 32 28 26 20
10 14 18 16 15 14 12 11 9 8 9 8 14 24 38 36 28 23 20 22 27 17
13 17 18 17 13 13 11 10 8 8 9 17 31 36 27 21 21 21 20 21 25 24
16 17 16 15 14 11 11 9 7 10 18 37 18 12 12 16 18 12 7 14 21 22
16 16 15 14 13 13 9 8 9 17 33 12 9 9 12 15 15 20 28 18 24 13
15 17 14 14 13 10 9 7 16 25 17 7 9 9 15 13 17 20 21 23 19 13
15 15 15 12 12 8 9 10 17 26 11 3 8 12 13 13 15 17 23 23 21 14
16 15 15 12 9 9 7 13 18 24 5 2 7 12 17 16 9 18 20 25 20 17
15 18 11 10 8 10 7 15 19 25 3 3 5 12 16 13 15 14 15 20 19 16
Height
5653 5639 5627 5614 5601 5590 5578 5568 5558 5549 5540 5532 5525 5517 5509 5500 5492 5484 5477 5470 5464 5458
5643 5630 5617 5604 5591 5580 5569 5559 5549 5540 5532 5523 5515 5507 5498 5490 5481 5473 5465 5458 5453 5448
5633 5620 5608 5596 5583 5572 5561 5550 5541 5532 5523 5514 5506 5497 5487 5477 5468 5460 5452 5445 5439 5434
5623 5612 5601 5589 5576 5563 5552 5543 5534 5525 5516 5506 5497 5486 5475 5465 5455 5446 5437 5430 5424 5420
5617 5605 5593 5581 5568 5556 5545 5536 5526 5517 5508 5497 5486 5475 5462 5450 5440 5430 5421 5414 5410 5406
5608 5596 5584 5572 5561 5549 5539 5529 5520 5510 5500 5488 5476 5462 5448 5435 5424 5414 5407 5401 5398 5395
5600 5588 5577 5565 5555 5544 5534 5523 5513 5503 5491 5479 5464 5449 5436 5424 5414 5406 5399 5393 5390 5387
5592 5581 5569 5559 5548 5538 5528 5518 5507 5495 5483 5469 5454 5442 5432 5422 5412 5403 5396 5389 5385 5382
5585 5574 5563 5553 5543 5533 5523 5513 5501 5489 5475 5461 5450 5441 5431 5422 5412 5403 5394 5387 5383 5380
5580 5569 5558 5549 5539 5529 5519 5509 5497 5483 5471 5460 5450 5440 5430 5420 5410 5401 5393 5387 5383 5380
5575 5564 5554 5545 5536 5526 5517 5506 5493 5480 5470 5460 5449 5438 5428 5418 5409 5401 5394 5388 5384 5381
5570 5561 5552 5543 5534 5524 5514 5502 5490 5479 5470 5460 5449 5439 5429 5420 5411 5403 5395 5390 5386 5383
5567 5558 5550 5541 5532 5524 5513 5501 5488 5478 5470 5460 5451 5442 5431 5422 5413 5405 5399 5393 5389 5386
5564 5556 5548 5540 5530 5521 5511 5498 5487 5478 5471 5462 5454 5445 5435 5425 5417 5411 5404 5397 5393 5390